[[{"header":{"parameterUnit":"m.s-1","parameterCategory":1,"la1":30.2991,"la2":30.254,"lo1":-89.0895,"lo2":-89.0444,"dx":0.0017,"dy":0.0017,"nx":28,"ny":28,"refTime":"2023-01-14T03:00:00:Z","depth":0,"parameterNumber":2,"parameterNumberName":"U-component_of_WINDS"},"data":[0,0,0,0,0,0,0,0,0,0,0,0,0,0,0,0,0,0,0,0,0,0,0,0,0,0,0,0,0,0,0,0,0,0,0,0,0,0,0,0,0,0,0,0,0,0,0,0,0,0,0,0,0,0,0,0,0,0,3.317,3.317,0,3.3185,3.3185,3.3185,3.3153,3.3151,3.315,3.3149,3.3164,3.3166,3.3167,0,0,0,0,0,0,0,0,0,0,0,0,0,3.3116,3.3117,3.317,3.3171,3.3171,3.3185,3.3185,3.3185,3.3153,3.3151,3.315,3.3149,3.3164,3.3166,3.3167,0,0,0,0,0,0,0,0,0,0,0,0,0,3.3136,3.3117,3.317,3.3156,3.3155,3.3185,3.3185,3.3185,3.3153,3.3151,3.315,3.3148,3.3163,3.3165,3.3167,3.3212,0,0,3.3174,3.3175,0,0,0,0,0,0,0,0,3.3135,3.3138,3.3158,3.3157,3.3156,3.3165,3.3171,3.3194,3.3153,3.3154,3.3149,3.3148,3.3166,3.3168,3.3174,3.3212,3.3213,3.3174,3.3175,3.3176,3.3177,0,0,0,0,0,0,0,3.3133,3.3137,3.3176,3.3158,3.3157,3.315,3.3151,3.3176,3.3169,3.3154,3.3151,3.3153,3.3165,3.3172,3.3174,3.3213,3.3174,3.3176,3.3177,3.3178,3.3292,3.3293,0,0,0,0,0,0,3.3134,3.3136,3.3176,3.3177,3.3141,3.3152,3.3153,3.3164,3.3168,3.3167,3.3155,3.3152,3.3169,3.3172,3.3174,3.3228,3.3176,3.3178,3.3179,3.329,3.3292,3.3294,0,0,0,0,0,0,3.3133,3.3137,3.3175,3.3156,3.316,3.3154,3.3167,3.3165,3.3172,3.3169,3.3168,3.3163,3.3168,3.3172,3.3203,3.3228,3.3179,3.3181,3.3288,3.3291,3.3293,3.3335,0,0,0,0,0,0,3.3131,3.3137,3.3153,3.3156,3.3161,3.3203,3.3168,3.3166,3.3176,3.3172,3.3176,3.3176,3.3167,3.32,3.3205,3.323,3.3182,3.3286,3.3289,3.3292,3.3331,3.3338,3.3345,0,0,0,0,0,3.3129,3.3164,3.3154,3.3159,3.3181,3.3205,3.3207,3.3197,3.3178,3.3194,3.3193,3.3176,3.3225,3.3204,3.3209,3.3235,3.3284,3.3288,3.3292,3.3328,3.3337,3.3345,0,0,0,0,0,0,3.3163,3.3164,3.3153,3.319,3.3198,3.3199,3.3219,3.3206,3.3219,3.3215,3.3202,3.3203,3.3238,3.324,3.3216,3.3279,3.3251,3.3256,3.3277,3.3285,3.3292,3.3291,3.3184,0,0,0,0,0,3.3175,3.3194,3.3194,3.3226,3.323,3.3225,3.3234,3.3226,3.3233,3.3236,3.3237,3.3245,3.3263,3.3274,3.329,3.3332,3.3333,3.3352,3.3359,3.3365,3.3369,3.3393,3.3402,3.3307,3.3307,3.3307,0,0,3.3199,3.3202,3.3215,3.3233,3.3238,3.3258,3.3227,3.325,3.3265,3.3239,3.327,3.3271,3.3279,3.3317,3.3334,3.3319,3.3396,3.337,3.3374,3.3376,3.3398,3.3407,3.3415,3.331,3.331,3.3309,0,0,3.3254,3.3258,3.3286,3.3292,3.3301,3.3297,3.3304,3.3308,3.3308,3.3339,3.3321,3.3339,3.3369,3.3376,3.3384,3.3445,3.343,3.3451,3.3486,3.351,3.3517,3.3524,3.3547,3.3555,3.3455,3.3456,3.3456,0,3.3283,3.3313,3.3302,3.3327,3.3336,3.3315,3.3344,3.3351,3.3364,3.3371,3.3355,3.3394,3.3398,3.3438,3.3453,3.346,3.3468,3.3449,3.3517,3.3524,3.353,3.3551,3.356,3.3458,3.3458,3.3457,3.3457,0,3.3349,3.337,3.3392,3.3406,3.3418,3.3445,3.3439,3.3453,3.3444,3.3443,3.3475,3.348,3.3497,3.3506,3.3497,3.3545,3.3536,3.3519,3.3491,3.3541,3.3561,3.3569,3.3462,3.3461,3.346,3.3459,0,0,3.3423,3.3433,3.3441,3.3449,3.3458,3.3474,3.3501,3.3518,3.3531,3.3542,3.3564,3.3592,3.3576,3.3585,3.3578,3.3598,3.3648,3.3579,3.3579,3.3592,3.3703,3.3716,3.3726,3.3639,3.364,3.3642,3.3703,0,3.3478,3.3524,3.3516,3.3561,3.3581,3.3563,3.3587,3.3596,3.3596,3.3614,3.3614,3.3634,3.3612,3.3617,3.3637,3.3638,3.367,3.3634,3.366,3.3661,3.3659,3.3736,3.3749,3.3806,3.371,3.3712,3.3713,0,3.3547,3.3562,3.3609,3.3617,3.3625,3.3646,3.3663,3.368,3.3691,3.369,3.3701,3.369,3.3718,3.369,3.3729,3.3704,3.3715,3.3718,3.372,3.3721,3.369,3.374,3.3824,3.3833,3.3725,3.3724,3.3723,0,3.3598,3.3629,3.3661,3.3668,3.3678,3.3694,3.3699,3.3708,3.372,3.3735,3.3743,3.3761,3.377,3.3785,3.378,3.376,3.3821,3.3792,3.3821,3.3821,3.3834,3.3833,3.3921,3.3841,3.3841,3.3841,3.3841,0,3.3659,3.3689,3.3684,3.3704,3.3738,3.373,3.3763,3.3766,3.3775,3.3796,3.3782,3.3802,3.3794,3.3815,3.3811,3.3845,3.3849,3.3849,3.3848,3.3851,3.3851,3.3857,3.3853,3.3843,3.3843,3.3842,3.3842,0,3.372,3.3719,3.3753,3.3761,3.3764,3.3788,3.3795,3.3815,3.3815,3.3842,3.3848,3.3848,3.3871,3.3868,3.3893,3.3891,3.3933,3.3927,3.393,3.3928,3.3958,3.3955,3.4053,3.4066,3.3978,3.3979,3.3979,0,3.376,3.3782,3.3793,3.3807,3.3813,3.3835,3.3847,3.3842,3.3855,3.3871,3.3889,3.3911,3.3928,3.3966,3.3969,3.3989,3.3983,3.4016,3.3986,3.3989,3.3984,3.3983,3.3986,3.4022,3.4023,3.4024,3.4024,0,3.383,3.3829,3.3847,3.3867,3.3883,3.3897,3.3911,3.3922,3.3918,3.3935,3.3959,3.3972,3.3999,3.4022,3.4042,3.4047,3.4036,3.4034,3.4042,3.4045,3.4045,3.4046,3.3946,3.4032,3.4031,3.403,3.403,3.403,3.3882,3.3902,3.3914,3.3936,3.3945,3.3959,3.3978,3.3982,3.4001,3.4023,3.4019,3.4046,3.4059,3.4084,3.4092,3.4114,3.4102,3.4113,3.4116,3.4119,3.4123,3.4043,3.4117,3.4117,3.4117,3.4117,3.4117,0,3.3952,3.3959,3.398,3.4,3.4018,3.4006,3.4021,3.4037,3.4061,3.4074,3.4092,3.412,3.4143,3.4149,3.417,3.4187,3.4182,3.4193,3.4192,3.4193,3.4132,3.4123,3.4197,3.4197,3.4197,3.4197,3.4196,3.4196,3.3991,3.4024,3.4025,3.4064,3.4071,3.4099,3.4108,3.4121,3.4132,3.4164,3.4183,3.4187,3.4198,3.4221,3.4241,3.4242,3.4251,3.4264,3.4263,3.4205,3.4197,3.419,3.4181,3.4266,3.4266,3.4323,3.4324,3.4324]},{"header":{"parameterUnit":"m.s-1","parameterCategory":1,"la1":30.2991,"la2":30.254,"lo1":-89.0895,"lo2":-89.0444,"dx":0.0017,"dy":0.0017,"nx":28,"ny":28,"refTime":"2023-01-14T03:00:00:Z","depth":0,"parameterNumber":3,"parameterNumberName":"V-component_of_WINDS"},"data":[0,0,0,0,0,0,0,0,0,0,0,0,0,0,0,0,0,0,0,0,0,0,0,0,0,0,0,0,0,0,0,0,0,0,0,0,0,0,0,0,0,0,0,0,0,0,0,0,0,0,0,0,0,0,0,0,0,0,-6.5289,-6.5291,0,-6.5438,-6.5439,-6.5441,-6.5443,-6.5441,-6.544,-6.5438,-6.5586,-6.5591,-6.5597,0,0,0,0,0,0,0,0,0,0,0,0,0,-6.5006,-6.5011,-6.5289,-6.5291,-6.5293,-6.5437,-6.544,-6.5442,-6.5444,-6.5441,-6.5439,-6.5437,-6.5584,-6.559,-6.5597,0,0,0,0,0,0,0,0,0,0,0,0,0,-6.5139,-6.5012,-6.5289,-6.5312,-6.5315,-6.5437,-6.544,-6.5442,-6.5444,-6.5441,-6.5439,-6.5436,-6.5581,-6.559,-6.5598,-6.5706,0,0,-6.5624,-6.5628,0,0,0,0,0,0,0,0,-6.5131,-6.5149,-6.5306,-6.531,-6.5314,-6.5419,-6.5394,-6.553,-6.5445,-6.5395,-6.5438,-6.5435,-6.5532,-6.5545,-6.5578,-6.5713,-6.5719,-6.5625,-6.563,-6.5634,-6.5636,0,0,0,0,0,0,0,-6.5122,-6.5143,-6.5348,-6.5309,-6.5314,-6.5314,-6.5329,-6.542,-6.5477,-6.5399,-6.54,-6.5417,-6.5534,-6.557,-6.5582,-6.5722,-6.5625,-6.5632,-6.5637,-6.5641,-6.5955,-6.5958,0,0,0,0,0,0,-6.5109,-6.5135,-6.5343,-6.5352,-6.5214,-6.5321,-6.5339,-6.5388,-6.5476,-6.5487,-6.542,-6.5417,-6.5557,-6.5572,-6.5587,-6.5721,-6.5633,-6.5641,-6.5646,-6.5951,-6.5955,-6.5959,0,0,0,0,0,0,-6.5102,-6.5127,-6.5337,-6.5244,-6.5271,-6.5329,-6.5385,-6.5393,-6.5429,-6.5492,-6.5502,-6.5446,-6.5555,-6.5575,-6.5677,-6.5726,-6.5645,-6.5653,-6.5947,-6.5952,-6.5957,-6.5988,0,0,0,0,0,0,-6.5094,-6.5125,-6.5167,-6.5245,-6.5276,-6.5426,-6.5388,-6.5398,-6.5444,-6.5442,-6.552,-6.553,-6.5555,-6.5665,-6.5686,-6.5736,-6.566,-6.5943,-6.595,-6.5955,-6.5983,-6.5994,-6.6003,0,0,0,0,0,-6.5084,-6.5169,-6.5169,-6.5194,-6.533,-6.5429,-6.5446,-6.5474,-6.5448,-6.5491,-6.5532,-6.5527,-6.5717,-6.5675,-6.5699,-6.5753,-6.594,-6.5948,-6.5955,-6.5979,-6.5992,-6.6003,0,0,0,0,0,0,-6.5093,-6.5179,-6.5181,-6.5293,-6.5354,-6.5429,-6.5483,-6.5487,-6.5555,-6.555,-6.5581,-6.5598,-6.5701,-6.5737,-6.5688,-6.5863,-6.5826,-6.5838,-6.5836,-6.5848,-6.5858,-6.5847,-6.5667,0,0,0,0,0,-6.5108,-6.5182,-6.5253,-6.5345,-6.5376,-6.5425,-6.5469,-6.5486,-6.5549,-6.5574,-6.5622,-6.5683,-6.5757,-6.5804,-6.5875,-6.5989,-6.6006,-6.6037,-6.6047,-6.6055,-6.6065,-6.6129,-6.6144,-6.5983,-6.5983,-6.5983,0,0,-6.5139,-6.5196,-6.524,-6.5349,-6.5398,-6.5473,-6.5446,-6.5526,-6.5583,-6.5586,-6.5686,-6.5724,-6.5794,-6.5903,-6.5953,-6.5936,-6.6114,-6.6064,-6.607,-6.6076,-6.6138,-6.6154,-6.6167,-6.5988,-6.5987,-6.5986,0,0,-6.5236,-6.5286,-6.5369,-6.542,-6.5495,-6.5528,-6.5548,-6.5623,-6.5649,-6.575,-6.5755,-6.5822,-6.5948,-6.5998,-6.604,-6.6159,-6.6158,-6.6181,-6.6231,-6.6293,-6.6306,-6.6318,-6.6361,-6.6376,-6.6191,-6.6191,-6.6191,0,-6.5266,-6.5381,-6.5411,-6.5494,-6.5541,-6.555,-6.5634,-6.5681,-6.5775,-6.5808,-6.5788,-6.5948,-6.5995,-6.6117,-6.6146,-6.6179,-6.6203,-6.6172,-6.6302,-6.6314,-6.6325,-6.6367,-6.6383,-6.6193,-6.6193,-6.6193,-6.6192,0,-6.5414,-6.5494,-6.5552,-6.5645,-6.57,-6.5782,-6.5825,-6.5876,-6.5889,-6.5923,-6.6027,-6.6085,-6.6169,-6.6199,-6.621,-6.6323,-6.631,-6.6296,-6.6259,-6.6342,-6.6382,-6.6398,-6.6197,-6.6196,-6.6195,-6.6194,0,0,-6.5519,-6.563,-6.5651,-6.5694,-6.5779,-6.5841,-6.5924,-6.6008,-6.6052,-6.6117,-6.6188,-6.6296,-6.6284,-6.6332,-6.635,-6.6404,-6.6496,-6.6384,-6.6386,-6.6403,-6.6624,-6.6635,-6.6653,-6.6496,-6.6499,-6.6502,-6.6619,0,-6.5625,-6.5776,-6.5806,-6.5936,-6.6011,-6.6021,-6.6094,-6.6154,-6.6188,-6.6256,-6.6294,-6.637,-6.6348,-6.6378,-6.6432,-6.6473,-6.6541,-6.6465,-6.6562,-6.6565,-6.6545,-6.6674,-6.6685,-6.6792,-6.6635,-6.6637,-6.6639,0,-6.5769,-6.5841,-6.5978,-6.6056,-6.6088,-6.6153,-6.6234,-6.6299,-6.6367,-6.6388,-6.6443,-6.6456,-6.6543,-6.6502,-6.6623,-6.6571,-6.6612,-6.6639,-6.6644,-6.6654,-6.6607,-6.6688,-6.6827,-6.6844,-6.6664,-6.6662,-6.666,0,-6.5834,-6.5964,-6.6064,-6.61,-6.6192,-6.6238,-6.6278,-6.6344,-6.6393,-6.6463,-6.6495,-6.6574,-6.6617,-6.6677,-6.6711,-6.6678,-6.6829,-6.6791,-6.6849,-6.6849,-6.6881,-6.6878,-6.7029,-6.6906,-6.6906,-6.6906,-6.6906,0,-6.595,-6.6034,-6.6094,-6.6155,-6.625,-6.6285,-6.6377,-6.6417,-6.6476,-6.6545,-6.6558,-6.6622,-6.6662,-6.6732,-6.6759,-6.6856,-6.6874,-6.6894,-6.69,-6.6894,-6.6891,-6.6921,-6.6915,-6.691,-6.6909,-6.6908,-6.6908,0,-6.6037,-6.6081,-6.6191,-6.627,-6.6292,-6.6358,-6.6426,-6.6486,-6.6521,-6.6609,-6.6631,-6.6686,-6.677,-6.681,-6.6912,-6.693,-6.704,-6.704,-6.7017,-6.702,-6.7077,-6.7071,-6.7253,-6.7279,-6.7138,-6.7139,-6.714,0,-6.6109,-6.6174,-6.6261,-6.631,-6.6352,-6.6428,-6.648,-6.6516,-6.6569,-6.6653,-6.6703,-6.6787,-6.6857,-6.699,-6.7038,-6.7117,-6.712,-6.7179,-6.7132,-6.7124,-6.7123,-6.7119,-6.7126,-6.7187,-6.7188,-6.7189,-6.719,0,-6.6231,-6.625,-6.6324,-6.6407,-6.6468,-6.6534,-6.6598,-6.6637,-6.6684,-6.6742,-6.6829,-6.6883,-6.699,-6.7073,-6.7156,-6.7197,-6.7202,-6.7205,-6.7223,-6.7217,-6.7201,-6.7211,-6.7041,-6.72,-6.7199,-6.7199,-6.7198,-6.7198,-6.6314,-6.6373,-6.6445,-6.6527,-6.658,-6.6641,-6.6702,-6.6746,-6.682,-6.691,-6.6927,-6.702,-6.7088,-6.72,-6.7244,-6.7316,-6.7302,-6.7328,-6.7335,-6.734,-6.7344,-6.7189,-6.7331,-6.733,-6.733,-6.733,-6.733,0,-6.6438,-6.6485,-6.6561,-6.6652,-6.6717,-6.6718,-6.6791,-6.6845,-6.6926,-6.699,-6.7059,-6.7159,-6.7241,-6.7297,-6.7381,-6.7428,-6.7432,-6.7448,-6.7445,-6.7455,-6.7351,-6.7328,-6.7444,-6.7444,-6.7443,-6.7443,-6.7443,-6.7443,-6.651,-6.6612,-6.664,-6.6767,-6.6814,-6.6906,-6.6947,-6.7003,-6.7055,-6.7167,-6.7236,-6.7273,-6.7334,-6.7422,-6.7497,-6.7511,-6.7542,-6.7558,-6.7572,-6.7474,-6.7462,-6.7451,-6.7429,-6.7564,-6.7565,-6.7671,-6.7672,-6.7672]}]]